Weather History for Fairfield, IL

Change the Weather History Date:

Monday, March 17, 2014

  Actual Average (KMVN) Record (KMVN)
Temperature  
Mean Temperature 35 °F -  
Max Temperature 44 °F 51 °F 80 °F (2012)
Min Temperature 26 °F 32 °F 23 °F (2005)
Degree Days  
Heating Degree Days 30    
Moisture  
Dew Point 24 °F    
Average Humidity 69    
Maximum Humidity 87    
Minimum Humidity 57    
Precipitation  
Precipitation 0.00 in - - ()
Sea Level Pressure  
Sea Level Pressure 29.90 in    
Wind  
Wind Speed 7 mph (NE)    
Max Wind Speed 15 mph    
Max Gust Speed 21 mph    
Visibility 10 miles    
Events      
Averages and records for this station are not official NWS values.
T = Trace of Precipitation, MM = Missing Value Source: NWS Daily Summary

Daily Weather History Graph

Daily Weather History Graph

Search for Another Location

Airport:

Trip Planner

Search our weather history database for the weather conditions in past years. The results will help you decide how hot, cold, wet, or windy it might be!

Date:

Astronomy

Mar. 17, 2014 Rise Set
Actual Time 7:01 AM CDT 7:02 PM CDT
Civil Twilight 6:35 AM CDT 7:29 PM CDT
Nautical Twilight 6:04 AM CDT 7:59 PM CDT
Astronomical Twilight 5:33 AM CDT 8:31 PM CDT
Moon 8:17 PM CDT (3/17) 7:18 AM CDT (3/17)
Length of Visible Light 12h 53m
Length of Day
12h 00m
Full, 99% of the Moon is Illuminated
Mar 17
Full
Mar 23
Last Quarter
Mar 30
New
Apr 7
First Quarter
Apr 15
Full

Hourly Weather History & Observations

Time (CDT) Temp. Windchill Dew Point Humidity Pressure Visibility Wind Dir Wind Speed Gust Speed Precip Events Conditions
12:15 AM 28.4 °F 17.0 °F 17.6 °F 64% 30.01 in 10.0 mi NE 15.0 mph 20.7 mph N/A   Overcast
12:35 AM 28.4 °F 17.5 °F 17.6 °F 64% 30.00 in 10.0 mi NNE 13.8 mph 17.3 mph N/A   Overcast
1:15 AM 28.4 °F 18.0 °F 17.6 °F 64% 30.01 in 10.0 mi North 12.7 mph 19.6 mph N/A   Overcast
1:35 AM 28.4 °F 18.0 °F 17.6 °F 64% 30.01 in 10.0 mi NNE 12.7 mph 17.3 mph N/A   Overcast
1:55 AM 28.4 °F 17.5 °F 17.6 °F 64% 30.01 in 10.0 mi North 13.8 mph 19.6 mph N/A   Overcast
2:15 AM 28.4 °F 18.5 °F 17.6 °F 64% 30.01 in 10.0 mi North 11.5 mph - N/A   Overcast
2:35 AM 28.4 °F 19.1 °F 17.6 °F 64% 29.98 in 10.0 mi NNE 10.4 mph - N/A   Overcast
2:55 AM 28.4 °F 19.7 °F 17.6 °F 64% 29.97 in 10.0 mi NNE 9.2 mph 18.4 mph N/A   Overcast
3:15 AM 26.6 °F 15.7 °F 17.6 °F 69% 29.95 in 10.0 mi NNE 12.7 mph - N/A   Overcast
3:35 AM 28.4 °F 19.1 °F 17.6 °F 64% 29.96 in 10.0 mi NNE 10.4 mph - N/A   Overcast
3:55 AM 26.6 °F 16.2 °F 17.6 °F 69% 29.95 in 10.0 mi North 11.5 mph - N/A   Overcast
4:15 AM 26.6 °F 16.8 °F 17.6 °F 69% 29.95 in 10.0 mi North 10.4 mph 16.1 mph N/A   Overcast
4:35 AM 26.6 °F 15.2 °F 17.6 °F 69% 29.94 in 10.0 mi North 13.8 mph - N/A   Overcast
4:55 AM 26.6 °F 18.2 °F 17.6 °F 69% 29.93 in 10.0 mi NE 8.1 mph - N/A   Overcast
5:15 AM 26.6 °F 18.2 °F 19.4 °F 74% 29.92 in 10.0 mi NE 8.1 mph - N/A   Overcast
5:35 AM 26.6 °F 18.2 °F 17.6 °F 69% 29.92 in 10.0 mi NE 8.1 mph - N/A   Overcast
5:55 AM 26.6 °F 18.2 °F 19.4 °F 74% 29.93 in 10.0 mi NE 8.1 mph - N/A   Overcast
6:15 AM 26.6 °F 19.1 °F 17.6 °F 69% 29.93 in 10.0 mi NE 6.9 mph - N/A   Overcast
6:35 AM 26.6 °F 18.2 °F 19.4 °F 74% 29.94 in 10.0 mi NE 8.1 mph - N/A   Overcast
6:55 AM 26.6 °F 20.0 °F 19.4 °F 74% 29.94 in 10.0 mi NE 5.8 mph - N/A   Overcast
7:15 AM 26.6 °F 21.2 °F 19.4 °F 74% 29.94 in 10.0 mi NNE 4.6 mph - N/A   Overcast
7:35 AM 26.6 °F 20.0 °F 19.4 °F 74% 29.94 in 10.0 mi NE 5.8 mph - N/A   Overcast
7:55 AM 26.6 °F 21.2 °F 19.4 °F 74% 29.94 in 10.0 mi NNE 4.6 mph - N/A   Overcast
8:15 AM 26.6 °F 22.6 °F 19.4 °F 74% 29.95 in 10.0 mi North 3.5 mph - N/A   Overcast
8:35 AM 28.4 °F 24.6 °F 19.4 °F 69% 29.96 in 10.0 mi North 3.5 mph - N/A   Overcast
8:55 AM 28.4 °F 24.6 °F 19.4 °F 69% 29.96 in 10.0 mi North 3.5 mph - N/A   Overcast
9:15 AM 28.4 °F 24.6 °F 19.4 °F 69% 29.97 in 10.0 mi NNW 3.5 mph - N/A   Overcast
9:35 AM 28.4 °F 24.6 °F 19.4 °F 69% 29.95 in 10.0 mi NNE 3.5 mph - N/A   Overcast
9:55 AM 28.4 °F 22.2 °F 19.4 °F 69% 29.94 in 10.0 mi North 5.8 mph - N/A   Overcast
10:15 AM 30.2 °F 25.4 °F 21.2 °F 69% 29.94 in 10.0 mi North 4.6 mph - N/A   Overcast
10:35 AM 30.2 °F 25.4 °F 21.2 °F 69% 29.94 in 10.0 mi NNE 4.6 mph - N/A   Overcast
10:55 AM 30.2 °F - 21.2 °F 69% 29.94 in 10.0 mi Calm Calm - N/A   Overcast
11:15 AM 32.0 °F - 21.2 °F 64% 29.93 in 10.0 mi Calm Calm - N/A   Overcast
11:35 AM 33.8 °F - 23.0 °F 65% 29.94 in 10.0 mi Calm Calm - N/A   Overcast
11:55 AM 33.8 °F 28.6 °F 24.8 °F 70% 29.93 in 10.0 mi NNE 5.8 mph - N/A   Overcast
12:15 PM 35.6 °F 32.8 °F 24.8 °F 65% 29.92 in 10.0 mi NNW 3.5 mph - N/A   Overcast
12:35 PM 35.6 °F - 24.8 °F 65% 29.91 in 10.0 mi Calm Calm - N/A   Overcast
12:55 PM 35.6 °F - 24.8 °F 65% 29.90 in 10.0 mi Calm Calm - N/A   Overcast
1:15 PM 37.4 °F - 26.6 °F 65% 29.90 in 10.0 mi Calm Calm - N/A   Mostly Cloudy
1:35 PM 37.4 °F 33.8 °F 26.6 °F 65% 29.89 in 10.0 mi SE 4.6 mph - N/A   Clear
1:55 PM 39.2 °F - 26.6 °F 61% 29.87 in 10.0 mi Calm Calm - N/A   Clear
2:15 PM 39.2 °F - 26.6 °F 61% 29.86 in 10.0 mi Calm Calm - N/A   Clear
2:35 PM 41.0 °F - 28.4 °F 61% 29.85 in 10.0 mi Calm Calm - N/A   Clear
2:55 PM 42.8 °F 40.1 °F 28.4 °F 57% 29.84 in 10.0 mi South 4.6 mph - N/A   Clear
3:15 PM 42.8 °F 40.1 °F 28.4 °F 57% 29.84 in 10.0 mi SE 4.6 mph - N/A   Clear
3:35 PM 42.8 °F 39.3 °F 28.4 °F 57% 29.85 in 10.0 mi SW 5.8 mph - N/A   Clear
3:55 PM 44.6 °F - 30.2 °F 57% 29.85 in 10.0 mi Calm Calm - N/A   Clear
4:15 PM 44.6 °F - 30.2 °F 57% 29.85 in 10.0 mi Calm Calm - N/A   Clear
4:35 PM 44.6 °F - 30.2 °F 57% 29.83 in 10.0 mi Calm Calm - N/A   Clear
4:55 PM 44.6 °F 42.2 °F 30.2 °F 57% 29.83 in 10.0 mi SE 4.6 mph - N/A   Clear
5:15 PM 44.6 °F 43.1 °F 30.2 °F 57% 29.83 in 10.0 mi SE 3.5 mph - N/A   Clear
5:35 PM 44.6 °F 41.4 °F 30.2 °F 57% 29.81 in 10.0 mi SSE 5.8 mph - N/A   Clear
5:55 PM 44.6 °F 43.1 °F 30.2 °F 57% 29.82 in 10.0 mi SW 3.5 mph - N/A   Clear
6:15 PM 44.6 °F 43.1 °F 30.2 °F 57% 29.83 in 10.0 mi SW 3.5 mph - N/A   Clear
6:35 PM 42.8 °F - 30.2 °F 61% 29.83 in 10.0 mi Calm Calm - N/A   Clear
6:55 PM 42.8 °F - 30.2 °F 61% 29.83 in 10.0 mi Calm Calm - N/A   Clear
7:15 PM 41.0 °F 39.0 °F 32.0 °F 70% 29.83 in 10.0 mi South 3.5 mph - N/A   Clear
7:35 PM 39.2 °F - 33.8 °F 81% 29.84 in 10.0 mi Calm Calm - N/A   Clear
7:55 PM 39.2 °F - 33.8 °F 81% 29.85 in 10.0 mi Calm Calm - N/A   Clear
8:15 PM 37.4 °F - 32.0 °F 81% 29.85 in 10.0 mi Calm Calm - N/A   Clear
8:35 PM 37.4 °F - 32.0 °F 81% 29.85 in 10.0 mi Calm Calm - N/A   Clear
8:55 PM 37.4 °F - 32.0 °F 81% 29.84 in 10.0 mi Calm Calm - N/A   Clear
9:15 PM 37.4 °F - 32.0 °F 81% 29.85 in 10.0 mi Calm Calm - N/A   Clear
9:35 PM 35.6 °F - 32.0 °F 87% 29.85 in 10.0 mi Calm Calm - N/A   Clear
9:55 PM 35.6 °F - 30.2 °F 81% 29.86 in 10.0 mi Calm Calm - N/A   Clear
10:15 PM 33.8 °F - 30.2 °F 87% 29.87 in 10.0 mi Calm Calm - N/A   Clear
10:35 PM 33.8 °F - 30.2 °F 87% 29.87 in 10.0 mi Calm Calm - N/A   Clear
10:55 PM 35.6 °F 32.8 °F 30.2 °F 81% 29.86 in 10.0 mi SE 3.5 mph - N/A   Clear
11:15 PM 35.6 °F - 30.2 °F 81% 29.86 in 10.0 mi Calm Calm - N/A   Clear
11:35 PM 35.6 °F 32.8 °F 32.0 °F 87% 29.86 in 10.0 mi SSE 3.5 mph - N/A   Clear
11:55 PM 35.6 °F - 30.2 °F 81% 29.86 in 10.0 mi Calm Calm - N/A   Clear